Other Public Products
Issued by NWS Grand Forks, ND

Home | Current Version | Previous Version | Text Only | Print | Product List | Glossary On
Versions: 1 2 3 4 5 6 7 8 9 10 11 12 13 14 15 16 17 18 19 20 21 22 23 24 25 26 27 28 29 30 31 32 33 34 35 36 37 38 39 40 41 42 43 44 45 46 47 48 49 50
000
FPUS83 KFGF 051631
OPUFGF
PRAIRIE TO PINES WEATHER ROUNDUP
NATIONAL WEATHER SERVICE EASTERN NORTH DAKOTA/GRAND FORKS ND
1000 AM CST THU MAR 05 2015

 **SATELLITE DATA USED TO AUGMENT SKY COVER AT AUTOMATED STATIONS**
 *****  WEATHER ACROSS EASTERN NORTH DAKOTA  *****

CITY           SKY/WX    TMP DP  RH WIND       PRES   REMARKS
GRAND FORKS    SUNNY      4  -5  66 S14       30.30F WCI -14
GRAND FORKS AF SUNNY      7  -7  51 S14       30.28F WCI  -9
GRAND CITY NWS   N/A      7 N/A N/A S23         N/A  WCI -14
BUXTON           N/A      4  -2  73 S9          N/A  WCI -10
DEVILS LAKE    SUNNY      3  -8  60 S9        30.18F WCI -11
FARGO          SUNNY      7  -6  55 S15       30.37F WCI -10
WAHPETON ARPT  NOT AVBL
$$

 *****  WEATHER ACROSS CENTRAL AND WESTERN NORTH DAKOTA  *****

CITY           SKY/WX    TMP DP  RH WIND       PRES   REMARKS
JAMESTOWN      SUNNY      8  -2  63 S10       30.22F WCI  -6
BISMARCK       SUNNY     10   1  67 SE6       30.18F WCI   0
MINOT          SUNNY     11  -2  56 S12       30.07F WCI  -3
MINOT AFB      SUNNY      8  -1  66 SW14      30.06F WCI  -8
GARRISON         N/A      5  -2  72 S8        30.10F WCI  -8
WILLISTON        N/A    N/A N/A N/A MISG      30.07S
DICKINSON      SUNNY     25   6  44 SW13      30.03R WCI  14
HETTINGER      MOSUNNY   22   4  46 SW10      30.08F WCI  11
$$

 *****  OTHER OBSERVATIONS NORTHEAST NORTH DAKOTA  *****

CITY           SKY/WX    TMP DP  RH WIND       PRES   REMARKS
WALHALLA         N/A      7  -4  61 SE5       30.21F WCI  -2
LANGDON        NOT AVBL
CAVALIER       FAIR       5  -6  61 S10       30.24F WCI -10
GRAFTON        NOT AVBL
CANDO          FAIR       5  -2  72 S8        30.15F WCI  -8
FORT TOTTEN      N/A      3  -9  57 S8        29.95  WCI -10
ROLLA          FAIR       3  -4  72 SW13      30.08F WCI -14
RUGBY          FAIR       5  -2  72 S7        30.13F WCI  -7
 ***** THE ABOVE OBSERVATIONS ARE NON NWS ARE NOT QUALITY
        CONTROLLED AND MAY MIS-REPORT RAIN FOR SNOW...
$$

 *****  OTHER OBSERVATIONS SOUTHEAST NORTH DAKOTA *****

CITY           SKY/WX    TMP DP  RH WIND       PRES   REMARKS
COOPERSTOWN    NOT AVBL
VALLEY CITY    FLURRIES   7   0  72 S20       30.26F WCI -13
OAKES            N/A      5  -2  72 S21       30.31F WCI -16
GWINNER        SUNNY     10  -2  56 S17       30.34F WCI  -7
SHEYENNE NWR     N/A      6  -8  53 S13       29.95  WCI -10
BUFFALO        NOT AVBL
WYNDMERE       NOT AVBL
 ***** THE ABOVE OBSERVATIONS ARE NON NWS ARE NOT QUALITY
       CONTROLLED AND MAY MIS-REPORT RAIN FOR SNOW...
$$

  *****  WEATHER ACROSS NORTHERN MINNESOTA  *****

CITY           SKY/WX    TMP DP  RH WIND       PRES   REMARKS
FLAG ISLAND    SUNNY     -9 -15  77 S16       30.25F WCI -32
WARROAD        SUNNY      0  -9  65 SW7       30.27F WCI -13
ROSEAU         SUNNY      1  -8  66 S13       30.27F WCI -16
HALLOCK        SUNNY     -2  -9  71 S15       30.27F WCI -22
THF RVR FALLS  SUNNY      1 -11  55 S14       30.30F WCI -17
HALSTAD          N/A      9  -2  59 S17         N/A  WCI  -9
FOSSTON        SUNNY      1  -8  66 S14       30.33S WCI -17
BAUDETTE       SUNNY     -2 -11  65 SW9       30.28S WCI -18
WASKISH        SUNNY      1  -9  60 SW12      30.32R WCI -15
CROOKSTON      SUNNY      5  -4  66 S16       30.33F WCI -14
$$
  *****  WEATHER ACROSS CENTRAL AND WEST MINNESOTA  *****

CITY           SKY/WX    TMP DP  RH WIND       PRES   REMARKS
BEMIDJI        SUNNY      1  -9  62 SW6       30.31F WCI -10
PARK RAPIDS    SUNNY      1  -8  66 W10       30.34F WCI -15
WADENA         SUNNY      0  -6  78 SW9       30.37F WCI -16
DETROIT LAKES  SUNNY      3  -6  66 SW10      30.36S WCI -12
MOORHEAD       SUNNY      9  -6  52 S14       30.38F WCI  -8
FERGUS FALLS   SUNNY      0  -9  65 S10       30.45F WCI -17
ELBOW LAKE     FAIR      -1  -6  81 S9        30.41F WCI -17
MORRIS MN      SUNNY      3  -8  60 S9        30.42F WCI -11
STAPLES        SUNNY      1  -8  66 W8        30.39S WCI -12
WHEATON        SUNNY      0  -8  71 SE8       30.43F WCI -15
$$
  *****  WEATHER ELSEWHERE ACROSS MINNESOTA  *****

CITY           SKY/WX    TMP DP  RH WIND       PRES   REMARKS
DULUTH         SUNNY     -1 -11  62 W10       30.36R WCI -17
INTRNTL FALLS  SUNNY     -2 -12  62 SW8       30.30F WCI -17
ELY            SUNNY     -2 -11  65 SW3       30.31S
CLOQUET        SUNNY      1 -11  55 SW7       30.37F WCI -11
BRAINERD       SUNNY     -3 -10  72 SW7       30.41F WCI -16
HIBBING        SUNNY      1 -11  57 SW10      30.34F WCI -15
ALEXANDRIA     SUNNY     -3  -7  82 SW7       30.40S WCI -16
SAINT CLOUD    SUNNY      0  -7  72 S6        30.47S WCI -12
MINNEAPOLIS    SUNNY      2  -8  63 SW5       30.52S WCI  -8
$$

  *****  WEATHER ACROSS SOUTH DAKOTA  *****

CITY           SKY/WX    TMP DP  RH WIND       PRES   REMARKS
SIOUX FALLS    SUNNY      6  -3  66 S9        30.45F WCI  -8
BROOKINGS      NOT AVBL
WATERTOWN      SUNNY     -2 -10  69 S14       30.36S WCI -21
HURON          SUNNY      7  -2  66 S13       30.40S WCI  -9
SISSETON       NOT AVBL
ABERDEEN       SUNNY      2  -7  66 S13       30.36F WCI -15
MITCHELL       SUNNY     11   1  64 S14       30.42F WCI  -5
PIERRE         SUNNY      5   0  79 SE8       30.28F WCI  -8
MOBRIDGE       SUNNY      9   0  67 S13       30.20F WCI  -7
RAPID CITY     MOSUNNY   18  10  71 SE3       30.13S
$$

  *****  SOME WEATHER IN NEARBY STATES *****

CITY           SKY/WX    TMP DP  RH WIND       PRES   REMARKS
GLASGOW MT     SUNNY     19   5  54 NW8       30.08R WCI   9
GREAT FALLS MT SUNNY     36  12  37 SW15      30.12R
CHEYENNE WY    MOSUNNY   30   9  41 S6        30.16R WCI  24
SCOTTSBLUFF NE MOSUNNY   25  13  60 NW8       30.22R WCI  16
OMAHA NE       SUNNY     12   0  58 VRB6      30.58S WCI   3
DES MOINES IA  MOSUNNY    8  -7  50 VRB3      30.58S
DAVENPORT IA   SUNNY      2  -6  69 NW8       30.55R WCI -12
CHICAGO IL     MOSUNNY   13  -5  44 NW10      30.45F WCI   0
EAU CLAIRE WI  SUNNY     -1 -12  59 W7        30.50S WCI -14
LA CROSSE WI   SUNNY      5 -10  50 CALM      30.55S
$$

  *****  SOME NATIONAL WEATHER *****

CITY           SKY/WX    TMP DP  RH WIND       PRES   REMARKS
LA GUARDIA NY  SNOW      27  23  86 N9        30.12S VSB 1/4 WCI  17
RALEIGH NC     RAIN      43  39  87 NE10G21   29.97R FOG
ATLANTA GA     LGT RAIN  43  39  87 NW22G32   30.06R FOG
NEW ORLEANS LA CLOUDY    42  38  85 N21G29    30.22R
OKLAHOMA CITY  SUNNY     26  14  60 NW3       30.57R
ALBUQUERQUE NM SUNNY     29  17  61 NW6       30.41R WCI  23
SALT LAKE CITY PTSUNNY   32  21  64 S9        30.43R WCI  24
LOS ANGELES CA MOSUNNY   56  32  40 E3        30.26R
BOISE ID       SUNNY     34  17  50 CALM      30.41R
SEATTLE WA     CLOUDY    39  28  64 SE5       30.35R
$$

*** WEATHER ACROSS MANITOBA...SASKATCHEWAN AND ONTARIO ***
                ***ONTARIO***

CITY           SKY/WX    TMP DP  RH WIND       PRES   REMARKS
GERALDTON      SUNNY      0 -15  50 W10       30.20S WCI -17
THUNDER BAY    SUNNY      0 -13  55 W8        30.36F WCI -15
SIOUX LOOKOUT  SUNNY     -6 -15  65 SW6       30.20F WCI -18
TORONTO        PTSUNNY    9  -2  61 NW10      30.35R WCI  -6
BIG TROUT LK   SUNNY     -6 -15  65 W12       30.01F WCI -24
PICKLE LAKE    SUNNY     -2 -17  50 W13G21    30.10F WCI -21
DRYDEN         SUNNY     -6 -13  71 SW10      30.21S WCI -23
KENORA         SUNNY     -6 -15  65 SW5       30.22S WCI -17
$$
                *** MANITOBA***

CITY           SKY/WX    TMP DP  RH WIND       PRES   REMARKS
BRANDON        MOSUNNY   -9 -17  70 NW2       30.11F
DAUPHIN        SUNNY      5  -8  56 W10       30.04F WCI -10
ISLAND LAKE    PTSUNNY   -6 -17  59 S7        30.02F WCI -20
PILOT MOUND      N/A     -8 -15  71 S13         N/A  WCI -28
THE PAS        CLOUDY    -6 -15  65 S9        29.86F WCI -22
THOMPSON       PTSUNNY   -6 -17  59 S8        29.83F WCI -21
WINNIPEG       SUNNY     -2 -13  60 S14       30.24S WCI -21
LYNN LAKE      MOSUNNY   -2 -13  60 SW13      29.66F WCI -21
CHURCHILL      CRYSTALS -15 -22  70 S7        29.80F WCI -31
GILLAM         MOSUNNY   -6 -17  59 SW8       29.87F WCI -21
$$
                ***SASKATCHEWAN***

CITY           SKY/WX    TMP DP  RH WIND       PRES   REMARKS
ESTEVAN        SUNNY      7  -4  61 SW9       30.03F WCI  -7
KINDERSLEY     MOSUNNY   16   9  73 SW5       29.95S WCI   9
LLOYDMINSTER   MOSUNNY   21  10  63 W13       29.89R WCI   9
PRINCE ALBERT  MOSUNNY    5  -4  66 W8        29.86S WCI  -8
REGINA         MOSUNNY   -4 -13  65 SE3       30.01R



USA.gov is the U.S. government's official web portal to all federal, state and local government web resources and services.